#timestamp,LO_Frequency,Hit,StdDev 
1589565615.8,286047000.6,N
1589565635.6,286046999.0,N
1589565655.4,286047001.1,N
1589565675.3,286046999.5,N
1589565695.1,286046997.9,N
1589565715.9,286046996.2,Y
1589565735.7,286046999.0,P
1589565755.5,286046998.8,P
1589565775.4,286047000.9,P
1589565795.2,286047003.1,Y
1589565815.0,286047003.5,P
1589565815.9,286047003.5,N
1589565835.8,286047004.2,N
1589565855.6,286047003.1,N
1589565875.5,286047002.9,N
1589565895.3,286047002.9,N
1589565915.1,286047003.3,N
1589565935.9,286047007.6,Y
1589565955.7,286047003.1,P
1589565975.6,286047005.5,P
1589565995.4,286047001.3,N
1589566015.2,286047001.7,N
1589566035.1,286047005.1,Y
1589566036.0,286047005.1,P
1589566055.8,286047002.2,N
1589566075.7,286047000.0,N
1589566095.5,286047002.6,N
1589566115.3,286047001.8,N
1589566135.2,286047000.1,N
1589566155.9,286047002.3,N
1589566175.7,286046999.7,N
1589566195.6,286047000.1,N
1589566215.4,286047000.5,N
1589566235.3,286046998.1,N
1589566255.1,286046998.7,N
1589566256.0,286046998.7,N
1589566275.8,286047001.1,N
1589566295.7,286046999.1,N
1589566315.5,286047002.0,N
1589566335.3,286047002.6,N
1589566355.2,286047000.2,N
1589566375.0,286047001.1,N
1589566375.9,286047001.1,N
1589566395.8,286047000.2,N
1589566415.6,286047001.5,N
1589566435.4,286047002.0,N
1589566455.3,286047002.1,N
1589566475.1,286047001.9,N
1589566495.8,286047000.9,N
1589566515.7,286047001.3,N
1589566535.5,286047001.6,N
1589566555.4,286047003.8,N
1589566575.2,286047004.2,N
1589566595.0,286047002.3,N
1589566595.9,286047002.3,N
1589566615.8,286046999.9,N
1589566635.6,286047000.0,N
1589566655.4,286047000.3,N
1589566675.3,286047003.0,N
1589566695.1,286047002.9,N
1589566715.9,286047006.3,Y
1589566735.7,286047006.1,P
1589566755.5,286047006.3,N
1589566775.4,286047004.6,N
1589566795.2,286047008.7,Y
1589566815.0,286047003.6,P
1589566815.9,286047003.6,P
1589566835.8,286047004.1,P
1589566855.6,286047003.7,Y
1589566875.5,286046998.5,P
1589566895.3,286047000.4,N
1589566915.1,286047000.0,N
1589566935.9,286047003.8,N
1589566955.7,286047002.5,N
1589566975.5,286047004.1,N
1589566995.4,286047007.3,Y
1589567015.2,286047006.0,P
1589567035.0,286047003.1,N
1589567036.0,286047003.1,N
1589567055.8,286047003.2,N
1589567075.6,286047003.8,N
1589567095.5,286047002.9,N
1589567115.3,286047005.9,Y
1589567135.1,286047001.7,P
1589567155.9,286047003.6,P
1589567175.7,286047007.2,P
1589567195.5,286047004.5,N
1589567215.4,286047007.1,Y
1589567235.2,286046998.7,P
1589567255.1,286046998.2,N
1589567256.0,286046998.2,N
1589567275.8,286046998.1,N
1589567295.6,286047002.4,N
1589567315.5,286047004.2,N
1589567335.3,286047002.7,N
1589567355.2,286047000.1,N
1589567375.9,286047000.0,N
1589567395.7,286047002.7,N
1589567415.6,286047003.9,N
1589567435.4,286047003.8,N
1589567455.2,286047004.1,N
1589567475.1,286047004.3,N
1589567476.0,286047004.3,N
1589567495.8,286047004.5,N
1589567515.7,286047009.7,Y
1589567535.5,286047009.4,P
1589567555.3,286047011.0,N
1589567575.2,286047013.0,P
1589567595.9,286047013.8,Y
1589567615.7,286047001.5,P
1589567635.6,286047001.6,N
1589567655.4,286047002.8,N
1589567675.3,286047000.3,N
1589567695.1,286046999.8,N
1589567696.0,286046999.8,N
1589567715.8,286046999.8,N
1589567735.7,286046998.2,N
1589567755.5,286046998.2,N
1589567775.3,286046997.5,N
1589567795.2,286046995.1,N
1589567815.0,286046996.3,N
1589567815.9,286046996.3,N
1589567835.7,286046993.8,N
1589567855.6,286046996.4,N
1589567875.4,286046990.7,N
1589567895.3,286046990.7,N
1589567915.1,286046990.7,N
1589567916.0,286046990.7,N
1589567935.8,286046991.5,N
1589567955.7,286046987.4,N
1589567975.5,286046988.4,N
1589567995.3,286046988.4,N
1589568015.2,286046983.9,Y
1589568035.0,286046989.4,P
1589568035.9,286046989.4,P
1589568055.8,286046986.9,P
1589568075.6,286046987.6,Y
1589568095.4,286046996.7,P
1589568115.3,286046997.6,N
1589568135.1,286046997.6,N
1589568155.8,286046997.1,N
1589568175.7,286046996.8,N
1589568195.5,286046997.0,N
1589568215.4,286046998.8,N
1589568235.2,286047002.7,N
1589568255.0,286047000.2,N
1589568255.9,286047000.2,N
1589568275.8,286046999.8,N
1589568295.6,286047000.5,N
1589568315.4,286047002.7,N
1589568335.3,286047002.4,N
1589568355.1,286047002.8,N
1589568375.9,286046998.9,N
1589568395.7,286046998.8,N
1589568415.5,286046998.3,N
1589568435.4,286046999.4,N
1589568455.2,286046998.5,N
1589568475.0,286046997.0,N
1589568475.9,286046997.0,N
1589568495.8,286047000.8,N
1589568515.6,286047002.4,N
1589568535.5,286047002.0,N
1589568555.3,286047000.3,N
1589568575.1,286047000.4,N
1589568595.9,286047001.1,N
1589568615.7,286046997.7,N
1589568635.5,286046995.7,N
1589568655.4,286046996.4,N
1589568675.2,286046996.1,N
1589568695.0,286046997.2,N
1589568696.0,286046997.2,N
1589568715.8,286046995.2,N
1589568735.6,286046993.6,N
1589568755.5,286046993.4,N
1589568775.3,286046995.1,N
1589568795.1,286046995.0,N
1589568815.9,286046993.4,N
1589568835.7,286046995.3,N
1589568855.5,286046997.7,N
1589568875.4,286046995.4,N
1589568895.2,286046993.3,N
1589568915.1,286046993.3,N
1589568916.0,286046993.3,N
1589568935.8,286046993.3,N
1589568955.6,286046994.2,N
1589568975.5,286046991.7,N
1589568995.3,286046994.3,N
1589569015.1,286046993.4,N
1589569035.9,286046994.4,N
1589569055.7,286046992.3,N
1589569075.6,286046994.3,N
1589569095.4,286046991.9,Y
1589569115.2,286046997.2,P
1589569135.1,286046994.9,P
1589569136.0,286046994.9,P
1589569155.8,286046996.8,Y
1589569175.7,286047002.0,P
1589569195.5,286047004.4,N
